Regional Weather Roundup
Issued by NWS

Home | Current Version | Previous Version | Graphics & Text | Print | Product List | Glossary On
Versions: 1 2 3 4 5 6 7 8 9 10 11 12 13 14 15 16 17 18 19 20 21 22 23 24 25 26 27 28 29 30 31 32 33 34 35 36 37 38 39 40 41 42 43 44 45 46 47 48 49 50
000
ASUS45 KBOI 022210
RWRID

IDAHO REGIONAL WEATHER ROUNDUP
NATIONAL WEATHER SERVICE BOISE ID
400 PM MDT SUN AUG 02 2015

NOTE: "FAIR" INDICATES FEW OR NO CLOUDS BELOW 12000 FEET
WITH NO SIGNIFICANT WEATHER AND/OR OBSTRUCTIONS TO VISIBILITY

IDZ012-014-022300-
SOUTHWEST IDAHO


CITY           SKY/WX    TMP DP  RH WIND       PRES   REMARKS
BOISE          MOSUNNY  100  40  12 W7        29.84F HX  95
CALDWELL       MOSUNNY   99  45  15 N6        29.82F HX  94
MOUNTAIN HOME  MOSUNNY   99  34  10 E5        29.84F HX  93
$$

IDZ016-017-022300-
SOUTHCENTRAL IDAHO


CITY           SKY/WX    TMP DP  RH WIND       PRES   REMARKS
BURLEY         PTSUNNY   91  40  16 CALM      29.93F
JEROME         PTSUNNY   93  43  17 CALM      29.95F
TWIN FALLS     MOSUNNY   97  39  13 N8        29.92F HX  92
$$

IDZ019>023-022300-
SOUTHEAST IDAHO


CITY           SKY/WX    TMP DP  RH WIND       PRES   REMARKS
IDAHO FALLS    SUNNY     96  26   8 NE8       30.00F HX  90
POCATELLO      MOSUNNY   96  35  11 N12       29.97F HX  91
REXBURG        SUNNY     94  24   8 NW6       30.01F
$$

IDZ006-010-011-018-031-032-022300-
CENTRAL IDAHO MOUNTAINS


CITY           SKY/WX    TMP DP  RH WIND       PRES   REMARKS
MCCALL         SUNNY     93  31  11 W9        30.01F
HAILEY         MOSUNNY   90  37  15 SE12      30.05F
STANLEY          N/A     89  23   9 S7        30.12F
SALMON         SUNNY     91  41  17 NW6       29.91F
CHALLIS        MOSUNNY   93  29  10 VRB3      30.01F
$$

IDZ002-004-006-007-026-022300-
NORTHERN IDAHO


CITY           SKY/WX    TMP DP  RH WIND       PRES   REMARKS
LEWISTON       SUNNY    102  24   6 CALM      29.81F HX  95
LOWELL           N/A    101  45  15 CALM      29.78F HX  97
COEUR D`ALENE  SUNNY     99  34  10 SW8       29.85F HX  93
MULLAN PASS    SUNNY     83  21  10 VRB6      30.16F
$$


USA.gov is the U.S. government's official web portal to all federal, state and local government web resources and services.